Weather History for Springfield, VT

Change the Weather History Date:

Sunday, May 4, 2014

  Actual Average Record
Temperature  
Mean Temperature 47 °F 52 °F  
Max Temperature 53 °F 64 °F 87 °F (2001)
Min Temperature 41 °F 39 °F -16 °F (2005)
Degree Days  
Heating Degree Days 19    
Cooling Degree Days 0 0  
Month to date cooling degree days 0 0  
Year to date cooling degree days 0 2  
Moisture  
Dew Point 41 °F    
Average Humidity 77    
Maximum Humidity 100    
Minimum Humidity 54    
Precipitation  
Precipitation 0.05 in 0.10 in 0.80 in (2011)
Month to date precipitation 0.38 0.40  
Year to date precipitation 9.79 12.93  
Sea Level Pressure  
Sea Level Pressure 29.63 in    
Wind  
Wind Speed 10 mph (West)    
Max Wind Speed 25 mph    
Max Gust Speed 32 mph    
Visibility 6 miles    
Events Fog , Rain    
T = Trace of Precipitation, MM = Missing Value Source: NWS Daily Summary

Daily Weather History Graph

Daily Weather History Graph

Search for Another Location

Airport:

Trip Planner

Search our weather history database for the weather conditions in past years. The results will help you decide how hot, cold, wet, or windy it might be!

Date:

Astronomy

May. 04, 2014 Rise Set
Actual Time 5:39 AM EDT 7:55 PM EDT
Civil Twilight 5:07 AM EDT 8:27 PM EDT
Nautical Twilight 4:28 AM EDT 9:06 PM EDT
Astronomical Twilight 3:45 AM EDT 9:49 PM EDT
Moon 9:59 AM EDT (5/4) No Moon Set
Length of Visible Light 15h 19m
Length of Day
14h 16m
Waxing Crescent, 27% of the Moon is Illuminated
May 4
Waxing Crescent
May 6
First Quarter
May 14
Full
May 21
Last Quarter
May 28
New

Hourly Weather History & Observations

Time (EDT) Temp. Windchill Dew Point Humidity Pressure Visibility Wind Dir Wind Speed Gust Speed Precip Events Conditions
12:06 AM 46.9 °F - 46.0 °F 97% 29.70 in 2.0 mi Calm Calm - N/A   Mostly Cloudy
12:09 AM 46.9 °F - 46.0 °F 97% 29.70 in 1.5 mi Calm Calm - N/A   Mostly Cloudy
12:18 AM 46.9 °F - 46.0 °F 97% 29.70 in 0.8 mi Calm Calm - N/A   Mostly Cloudy
12:24 AM 46.9 °F - 46.0 °F 97% 29.69 in 2.0 mi Calm Calm - N/A   Mostly Cloudy
12:37 AM 46.9 °F - 46.0 °F 97% 29.69 in 3.0 mi Calm Calm - N/A   Overcast
12:39 AM 46.9 °F - 46.0 °F 97% 29.68 in 1.5 mi Calm Calm - N/A   Overcast
12:54 AM 46.0 °F - 45.0 °F 96% 29.68 in 0.2 mi Calm Calm - N/A Fog Fog
1:47 AM 45.0 °F - 45.0 °F 100% 29.66 in 0.5 mi Calm Calm - N/A Fog Fog
1:54 AM 45.0 °F - 44.1 °F 97% 29.66 in 0.5 mi Calm Calm - N/A Fog Fog
2:40 AM 44.1 °F - 44.1 °F 100% 29.66 in 1.0 mi Calm Calm - 0.00 in Rain Light Rain
2:51 AM 44.6 °F - 44.6 °F 100% 29.65 in 3.0 mi Calm Calm - 0.01 in Rain Light Rain
2:54 AM 45.0 °F 43.5 °F 44.1 °F 97% 29.65 in 5.0 mi Variable 3.5 mph - 0.01 in Rain Light Rain
3:54 AM 45.0 °F 43.5 °F 44.1 °F 97% 29.65 in 10.0 mi ENE 3.5 mph - 0.04 in   Mostly Cloudy
4:54 AM 44.1 °F - 43.0 °F 96% 29.63 in 4.0 mi Calm Calm - N/A   Scattered Clouds
5:49 AM 42.8 °F - 42.8 °F 100% 29.62 in 1.5 mi Calm Calm - N/A   Scattered Clouds
5:51 AM 42.8 °F - 42.8 °F 100% 29.62 in 0.8 mi Calm Calm - N/A   Scattered Clouds
5:54 AM 42.1 °F - 41.0 °F 96% 29.63 in 0.5 mi Calm Calm - N/A Fog Fog
6:06 AM 41.0 °F - 41.0 °F 100% 29.62 in 1.0 mi Calm Calm - N/A   Mist
6:20 AM 41.0 °F 39.0 °F 39.9 °F 96% 29.62 in 2.5 mi Variable 3.5 mph - N/A   Partly Cloudy
6:28 AM 42.1 °F - 41.0 °F 96% 29.62 in 10.0 mi Calm Calm - N/A   Partly Cloudy
6:54 AM 45.0 °F 43.5 °F 42.1 °F 90% 29.62 in 10.0 mi SSW 3.5 mph - N/A   Clear
7:54 AM 48.9 °F - 39.9 °F 71% 29.60 in 10.0 mi WSW 6.9 mph - N/A   Scattered Clouds
8:54 AM 50.0 °F - 36.0 °F 59% 29.60 in 10.0 mi WSW 12.7 mph 23.0 mph N/A   Overcast
9:54 AM 50.0 °F - 36.0 °F 59% 29.60 in 10.0 mi West 12.7 mph 19.6 mph N/A   Overcast
10:54 AM 51.1 °F - 36.0 °F 56% 29.58 in 10.0 mi WSW 13.8 mph 19.6 mph N/A   Overcast
11:54 AM 51.1 °F - 35.1 °F 54% 29.57 in 10.0 mi West 13.8 mph 21.9 mph N/A   Overcast
12:54 PM 51.1 °F - 36.0 °F 56% 29.56 in 10.0 mi WSW 9.2 mph 23.0 mph N/A   Overcast
1:54 PM 50.0 °F - 35.1 °F 57% 29.56 in 10.0 mi West 13.8 mph 24.2 mph N/A   Overcast
2:54 PM 51.1 °F - 36.0 °F 56% 29.57 in 10.0 mi West 23.0 mph 31.1 mph 0.00 in   Overcast
3:54 PM 48.9 °F - 36.0 °F 61% 29.58 in 10.0 mi West 16.1 mph 25.3 mph N/A   Overcast
4:54 PM 48.9 °F - 36.0 °F 61% 29.58 in 10.0 mi West 12.7 mph 21.9 mph N/A   Overcast
5:54 PM 48.9 °F - 36.0 °F 61% 29.58 in 10.0 mi West 13.8 mph 24.2 mph N/A   Scattered Clouds
6:54 PM 48.0 °F - 37.9 °F 68% 29.60 in 10.0 mi WNW 8.1 mph - 0.00 in Rain Light Rain
7:54 PM 46.0 °F 41.0 °F 37.0 °F 71% 29.61 in 10.0 mi West 10.4 mph - 0.00 in   Overcast
8:54 PM 46.0 °F 41.4 °F 37.0 °F 71% 29.62 in 10.0 mi WNW 9.2 mph - N/A   Overcast
9:54 PM 46.0 °F 40.2 °F 37.0 °F 71% 29.64 in 10.0 mi WNW 12.7 mph 23.0 mph N/A   Overcast
10:54 PM 45.0 °F 38.5 °F 37.0 °F 74% 29.66 in 10.0 mi NW 13.8 mph 24.2 mph N/A   Mostly Cloudy
11:54 PM 45.0 °F 39.3 °F 37.0 °F 74% 29.68 in 10.0 mi WNW 11.5 mph 24.2 mph N/A   Mostly Cloudy